Flag for Germany Past Weather in Ingelheim am Rhein, Rhineland-Palatinate, Germany — Yesterday and Last 2 Weeks

Now
65 °F

Sunny.


Feels Like: 65 °F
Forecast: 62 / 75 °F
Wind: 2 mph from Southeast

Location: Wiesbaden Airport

Current Time: Aug 28, 2016 at 9:09:14 AM

Latest Report: Aug 28, 2016 at 7:58 AM


Visibility: N/A

Pressure: 29.96 "Hg

Humidity: 77%

Dew Point: 58 °F

Location of Ingelheim am RheinLocation

Past Weather in Ingelheim am Rhein — Graph

°F

Ingelheim am Rhein Temperature Yesterday

Maximum temperature yesterday: 93 °F (at 4:58 PM)
Minimum temperature yesterday: 64 °F (at 6:58 AM)
Average temperature yesterday: 79 °F

High & Low Weather Summary for the Past Weeks

 TemperatureHumidityPressure
High93 °F (Aug 27, 4:58 PM)89% (Aug 22, 6:58 AM)30.39 "Hg (Aug 22, 6:58 AM)
Low52 °F (Aug 18, 6:58 AM)22% (Aug 16, 5:58 PM)29.79 "Hg (Aug 18, 5:58 PM)
Average70 °F55%30.07 "Hg
* Reported Aug 13 7:58 AM — Aug 28 7:58 AM, Ingelheim am Rhein, Weather by CustomWeather, © 2016

Note: Actual official high and low records may vary slightly from our data, if they occured in-between our weather recording intervals... More about our weather records

Advertising

Ingelheim am Rhein Weather History for the Previous 24 Hours

Scroll right to see more
 ConditionsComfort  
Time TempWeatherWind HumidityBarometerVisibility
7:58 AM
Sun, Aug 28
65 °FSunny.2 mph77%29.96 "HgN/A
6:58 AM64 °FClear.5 mph78%29.94 "HgN/A
5:58 AM65 °FClear.No wind75%29.95 "HgN/A
4:58 AM66 °FClear.2 mph73%29.94 "HgN/A
3:58 AM67 °FClear.No wind72%29.94 "HgN/A
2:58 AM68 °FClear.3 mph68%29.95 "HgN/A
1:58 AM69 °FClear.3 mph66%29.96 "HgN/A
12:58 AM73 °FClear.1 mph58%29.96 "HgN/A
11:58 PM
Sat, Aug 27
73 °FClear.2 mph63%29.96 "HgN/A
10:58 PM75 °FClear.2 mph57%29.96 "HgN/A
9:58 PM82 °FClear.2 mph42%29.97 "HgN/A
8:58 PM82 °FSunny.2 mph48%29.97 "HgN/A
7:58 PM88 °FSunny.3 mph35%29.96 "HgN/A
6:58 PM91 °FSunny.5 mph24%29.96 "HgN/A
5:58 PM93 °FSunny.8 mph24%29.97 "HgN/A
4:58 PM93 °FSunny.5 mph26%29.98 "HgN/A
3:58 PM93 °FSunny.5 mph28%30.00 "HgN/A
2:58 PM91 °FSunny.1 mph30%30.02 "HgN/A
1:58 PM90 °FSunny.6 mph31%30.03 "HgN/A
12:58 PM88 °FSunny.3 mph35%30.04 "HgN/A
11:58 AM86 °FSunny.5 mph39%30.06 "HgN/A
10:58 AM82 °FSunny.7 mph48%30.06 "HgN/A
9:58 AM79 °FSunny.7 mph54%30.07 "HgN/A
Weather by CustomWeather, © 2016

See weather overviewHow to use our weather pages